Regional Weather Roundup
Issued by NWS Green Bay, WI

Home | Current Version | Previous Version | Graphics & Text | Print | Product List | Glossary Off
Versions: 1 2 3 4 5 6 7 8 9 10 11 12 13 14 15 16 17 18 19 20 21 22 23 24 25 26 27 28 29 30 31 32 33 34 35 36 37 38 39 40 41 42 43 44 45 46 47 48 49 50

627
ASUS43 KGRB 171500
RWRGRB

NORTH-CENTRAL AND NORTHEAST WISCONSIN REGIONAL WEATHER ROUNDUP
NATIONAL WEATHER SERVICE GREEN BAY WI
900 AM CST TUE JAN 17 2017

WIZ005-009-010>012-018-019-171600-
NORTH CENTRAL WISCONSIN

CITY           SKY/WX    TMP DP  RH WIND       PRES   REMARKS
IRONWOOD       CLOUDY    23  20  88 CALM      29.93R
MANITOWISH WTR NOT AVBL
ARBOR VITAE    NOT AVBL
EAGLE RIVER    NOT AVBL
LAND O LAKES   NOT AVBL
RHINELANDER    CLOUDY    32  28  85 NE5       29.88S
PHILLIPS       MIX PCPN  31  30  99 CALM      29.89S
ANTIGO         NOT AVBL
TOMAHAWK       NOT AVBL
MERRILL        CLOUDY    33  33  99 NE6         N/A
$$

WIZ013-073-171600-
NORTHEAST WISCONSIN

CITY           SKY/WX    TMP DP  RH WIND       PRES   REMARKS
IRON MOUNTAIN  CLOUDY    30  22  72 N3        29.88F
MARINETTE      NOT AVBL
$$

WIZ017-030-035>037-045-171600-
CENTRAL WISCONSIN

CITY           SKY/WX    TMP DP  RH WIND       PRES   REMARKS
MEDFORD        NOT AVBL
WAUSAU         LGT RAIN  33  32  96 N5        29.86R FOG
MOSINEE        FOG       32  32 100 N3        29.87R VSB 1
MARSHFIELD     FOG       33  32  96 N5        29.86R VSB 1
WISC RAPIDS    CLOUDY    33  33 100 N5        29.88R FOG
STEVENS POINT  NOT AVBL
WAUPACA        NOT AVBL
SHAWANO        NOT AVBL
CLINTONVILLE   CLOUDY    32  32 100 NE3       29.85S FOG
WAUTOMA        CLOUDY    33  32  96 N6        29.85
$$

WIZ038-039-048-051-171600-
FOX VALLEY

CITY           SKY/WX    TMP DP  RH WIND       PRES   REMARKS
NWS GREEN BAY  LGT RAIN  35  35 100 N12       29.84F FOG
APPLETON       NOT AVBL
OSHKOSH        FOG       33  32  96 N10       29.82S VSB 1
FOND DU LAC    FOG       33  31  92 N9        29.81F VSB 1
$$

WIZ022-050-052-171600-
EAST CENTRAL WISCONSIN

CITY           SKY/WX    TMP DP  RH WIND       PRES   REMARKS
EPHRAIM        NOT AVBL
WASHINGTON ISL NOT AVBL
STURGEON BAY   LGT RAIN  36  35  96 NE10      29.84F FOG
MANITOWOC      NOT AVBL
SHEBOYGAN      FOG       35  34  96 N8        29.80F VSB 1/4
$$

LMZ563-521-522-541>543-171600-
LAKESHORE

STATION/POSITION TIME  TEMP    WIND        PRES    VSBY  WAVE
                       AIR SEA DIR/SP/G                  HT/PER
                 (UTC) (F)     (DEG/KT/KT) (MB)    (MI)  (FT/S)
KEWAUNEE LKSHORE 1430   35      10/  7/ 10 1009.7R
NORTHPORT PIER   1440   34      50/ 14/ 18 1011.5S
SISTER BAY LKSHO 1405   34      20/  8/ 13   N/A
MENOMINEE LKSHOR 1430           20/ 21/ 25 1010.3F
$$




USA.gov is the U.S. government's official web portal to all federal, state and local government web resources and services.